Overview Statistics Trail Chart Weather Telemetry Raw packets
 

This is the latest recevied weather packets stored in our database for station/object M0JUI-1. If no packets are shown the sender has not sent any weather packets the latest 10 day(s).

<< 15 16 17 18 19 20 21 >>
Time Temp. Humidity Pressure Rain* Wind** Luminosity Snow
1788530830 17.22° C 1% 1013.7 hPa 0 mm - 129 W/m² -
1788530529 17.78° C 1% 1013.8 hPa 0 mm - 141 W/m² -
1788530229 17.78° C 1% 1013.8 hPa 0 mm - 274 W/m² -
1788529932 17.78° C 1% 1013.4 hPa 0 mm - 233 W/m² -
1788529629 17.78° C 1% 1013.5 hPa 0 mm - 332 W/m² -
1788529334 18.33° C 1% 1013.3 hPa 0 mm - 282 W/m² -
1788529029 17.78° C 1% 1013.4 hPa 0 mm - 230 W/m² -
1788528729 18.33° C 1% 1013.7 hPa 0 mm - 250 W/m² -
1788528429 18.33° C 1% 1013.2 hPa 0 mm - 570 W/m² -
1788528129 17.78° C 1% 1013.5 hPa 0 mm - 443 W/m² -
1788527830 17.78° C 1% 1013.6 hPa 0 mm - 226 W/m² -
1788527529 17.78° C 1% 1013.3 hPa 0 mm - 333 W/m² -
1788527229 17.22° C 1% 1013.3 hPa 0 mm - 282 W/m² -
1788526929 17.78° C 1% 1013.3 hPa 0 mm - 190 W/m² -
1788526629 17.78° C 1% 1013.1 hPa 0 mm - 304 W/m² -
1788526329 17.22° C 1% 1013 hPa 0 mm - 314 W/m² -
1788526029 17.22° C 1% 1013.1 hPa 0 mm - 302 W/m² -
1788525729 17.22° C 1% 1012.9 hPa 0 mm - 263 W/m² -
1788525429 17.22° C 1% 1012.6 hPa 0 mm - 304 W/m² -
1788525129 17.22° C 1% 1012.8 hPa 0 mm - 356 W/m² -
1788524829 17.78° C 1% 1012.7 hPa 0 mm - 347 W/m² -
1788524529 17.78° C 1% 1012.7 hPa 0 mm - 377 W/m² -
1788524229 17.78° C 1% 1012.5 hPa 0 mm - 405 W/m² -
1788523930 17.78° C 1% 1012.4 hPa 0 mm - 393 W/m² -
1788523629 17.78° C 1% 1012.7 hPa 0 mm - 430 W/m² -

* Rain latest hour (hover to see other rain measurements)
** Current wind speed in m/s (hover to see current wind gust speed)